Regional Weather Roundup
Issued by NWS

Home | Current Version | Previous Version | Graphics & Text | Print | Product List | Glossary On
Versions: 1 2 3 4 5 6 7 8 9 10 11 12 13 14 15 16 17 18 19 20 21 22 23 24 25 26 27 28 29 30 31 32 33 34 35 36 37 38 39 40 41 42 43 44 45 46 47 48 49 50
121
ASUS43 KIND 262109
RWRIN

WEATHER ROUNDUP FOR INDIANA
NATIONAL WEATHER SERVICE INDIANAPOLIS IN
500 PM EDT TUE SEP 26 2017

NOTE: "FAIR" INDICATES FEW OR NO CLOUDS BELOW 12,000 FEET WITH NO
SIGNIFICANT WEATHER AND/OR OBSTRUCTIONS TO VISIBILITY.

* - STATION DOES NOT REPORT WEATHER SUCH AS PRECIPITATION OR FOG.

+ - STATION NOT QUALITY CONTROLLED BY THE NATIONAL WEATHER SERVICE.
    USE DATA WITH CAUTION...ESPECIALLY DEWPOINT AND RELATIVE
    HUMIDITY OBSERVATIONS.

INZ001>003-010>013-019-020-262200-
NORTHWEST INDIANA

CITY           SKY/WX    TMP DP  RH WIND       PRES   REMARKS
GARY /AIRPORT/ MOSUNNY   90  52  27 SW12      29.91F
KNOX *+        MOSUNNY   90  61  37 SW9G16    29.93F
LA PORTE +     SUNNY     86  61  42 SW8       29.94F
VALPARAISO     SUNNY     91  62  37 SW13      29.93F

$$

LMZ046-743>745-262200-
SOUTHERN LAKE MICHIGAN

STATION/POSITION TIME  TEMP    WIND        PRES    WAVE
                       AIR SEA DIR/SP/G            HT
                 (UTC) (F)     (DEG/KT/KT) (MB)    (FT)
BURNS HARBOR     2040   87     250/ 12/ 16 1013.2F
MICHIGAN CITY    2040   85     210/  9/ 11   N/A
5NW MICH CITY    2100   80 74  240/  6/  6   N/A     1

$$

INZ004-005-014>016-021>024-262200-
NORTH CENTRAL INDIANA

CITY           SKY/WX    TMP DP  RH WIND       PRES   REMARKS
ELKHART        MOSUNNY   86  63  45 SW9       29.94F
GOSHEN         PTSUNNY   88  61  40 W7        29.94F
LOGANSPORT +   SUNNY     88  61  40 W7        29.95F
PERU/GRISSOM   MOSUNNY   88  63  42 CALM      29.95F
SOUTH BEND     PTSUNNY   88  62  41 SW9       29.94F
WARSAW +       SUNNY     88  63  42 SW6       29.95F

$$

INZ006>009-017-018-025>027-262200-
NORTHEAST INDIANA

CITY           SKY/WX    TMP DP  RH WIND       PRES   REMARKS
AUBURN +       SUNNY     88  55  33 W3        29.96F
FORT WAYNE     MOSUNNY   89  60  37 SW5       29.96F
HUNTINGTON +   MOSUNNY   88  60  37 W6        29.95F

$$

INZ028-029-035-036-043>045-051>053-262200-
WEST CENTRAL INDIANA

CITY           SKY/WX    TMP DP  RH WIND       PRES   REMARKS
CRAWFORDSVL +  SUNNY     86  61  42 SW8       29.95
LAFAYETTE      MOSUNNY   87  64  46 W8        29.93F
TERRE HAUTE    SUNNY     91  58  32 SW6       29.94F

$$

INZ030>032-037>040-046>048-054>057-064-065-262200-
CENTRAL INDIANA

CITY           SKY/WX    TMP DP  RH WIND       PRES   REMARKS
CP ATTERBURY + SUNNY     88  61  40 SE5       29.96F
COLUMBUS       MOSUNNY   88  52  29 SW6       29.95F
FISHERS *+     SUNNY     90  66  45 CALM      29.95F
FRANKFORT +    CLOUDY    91  64  41 W6        29.96F
GREENWOOD *+   MOSUNNY   91  62  36 S3        29.96F
INDIANAPOLIS   MOSUNNY   91  60  35 W6        29.95F
-EAGLE CREEK   PTSUNNY   90  61  37 N5        29.95F
KOKOMO +       SUNNY     87  66  49 S8        29.96F
MARION +       MOSUNNY   88  61  40 W5        29.96F
MT COMFORT *+  SUNNY     90  63  40 CALM      29.97F
SHELBYVILLE    MOSUNNY   89  61  38 SW6       29.95F
ZIONSVILLE +   MOSUNNY   86  64  48 SW3       29.96F

$$

INZ033-034-041-042-049-050-058-059-262200-
EAST CENTRAL INDIANA

CITY           SKY/WX    TMP DP  RH WIND       PRES   REMARKS
MUNCIE         MOSUNNY   89  61  38 SW6       29.96F

$$

INZ060-061-067>069-081>083-085>088-262200-
SOUTHWEST INDIANA

CITY           SKY/WX    TMP DP  RH WIND       PRES   REMARKS
EVANSVILLE     MOSUNNY   91  61  36 NW5       29.94F
HUNTINGBURG +  SUNNY     88  64  44 CALM      29.95F
WASHINGTON +   SUNNY     90  55  30 S5        29.93F

$$

INZ062-063-066-070>080-084-089>092-262200-
SOUTH CENTRAL AND SOUTHEAST INDIANA

CITY           SKY/WX    TMP DP  RH WIND       PRES   REMARKS
BEDFORD +      SUNNY     88  57  35 CALM      29.95F
BLOOMINGTON    CLOUDY    88  59  37 SE5       29.96F
MADISON *+     SUNNY     88  54  31 CALM      29.98F
NORTH VERNON + SUNNY     84  61  45 CALM      29.96F
SEYMOUR +      SUNNY     91  59  33 CALM      29.95F

$$





USA.gov is the U.S. government's official web portal to all federal, state and local government web resources and services.